Location: Franzen
(48.6167°N, 15.3833°E)
Time: 01:54:30
(UTC+00:00)

Transit 2A - Pass Details

Date: 09 August 2021
Orbit: 594 x 964 km, 66.7° (Epoch: 27 September)

Event Time Altitude Azimuth Distance (km) Brightness Sun altitude
Rises 07:37:01 0° 311° (NW) 3,056 8.7 36.7°
Reaches altitude 10° 07:42:14 10° 359° (N) 2,261 8.3 37.5°
Maximum altitude 07:42:34 10° 2° (N) 2,265 8.4 37.6°
Drops below altitude 10° 07:42:54 10° 6° (N) 2,276 8.4 37.6°
Sets 07:48:31 0° 52° (NE) 3,343 9.6 38.5°
